Location: Spruce Knob
(38.6995°N, 79.5330°W)
Time: 21:03:13
(UTC-04:00)

Transit 2A - Pass Details

Date: 12 August 2022
Orbit: 601 x 956 km, 66.7° (Epoch: 27 September)

Event Time Altitude Azimuth Distance (km) Brightness Sun altitude
Rises 21:13:02 0° 336° (NNW) 2,857 9.9 -10.9°
Reaches altitude 10° 21:15:17 10° 341° (NNW) 1,962 8.9 -11.3°
Maximum altitude 21:19:35 53° 59° (ENE) 775 5.9 -12.0°
Enters shadow 21:22:48 18° 131° (SE) 1,579 7.0 -12.6°
